Find Starlink 34177

NORAD ID: 64170 Int'l Des: 2025-113 Owner: SPXS Country: US Constellation: starlink operational
LEOCIRCULAR

当前视图

正在加载3D地球...

关于 Starlink 34177

正在加载描述...

即将过境

Passes for default location (London). Set your location on the main map for personalized predictions.

高度历史

Loading altitude history...

两行轨道根数

1 64170U 25113A 26150.01796360 .00031950 00000-0 10365-2 0 9991
2 64170 53.1600 72.8923 0002169 143.2113 216.9038 15.31711552 57528
Epoch: May 30, 2026 • Age: 10 hours

当前状态

高度 470.9 km
速度 7.63 km/s
星下点 -3.47°S, 153.87°W
发射日期 May 28, 2025
运行时间 1 years
类型 internet

技术详情

分类 Payload
质量 575.00 kg
干质量 530.00 kg
总质量 575.00 kg
长度 0.30 m
直径 4.10 m
跨度 29.00 m
形状 Box + pan
制造商 SPXS
平台类型 Starlink V2MO
阶段状态 In Orbit
所有者/国家 SPXS/US

Most Searched